Regional Weather Roundup
Issued by NWS Little Rock, AR

Home | Current Version | Previous Version | Graphics & Text | Print | Product List | Glossary On
Versions: 1 2 3 4 5 6 7 8 9 10 11 12 13 14 15 16 17 18 19 20 21 22 23 24 25 26 27 28 29 30 31 32 33 34 35 36 37 38 39 40 41 42 43 44 45 46 47 48 49 50
000
ASUS44 KLZK 212305
RWRLZK

WEATHER ROUNDUP FOR ARKANSAS
NATIONAL WEATHER SERVICE LITTLE ROCK AR
600 PM CDT MON JUL 21 2014

NOTE: "FAIR" INDICATES FEW OR NO CLOUDS BELOW 12,000 FEET WITH NO
SIGNIFICANT WEATHER AND/OR OBSTRUCTIONS TO VISIBILITY.

ARZ001-003-010-029-220000-
NORTHWEST ARKANSAS

CITY           SKY/WX    TMP DP  RH WIND       PRES   REMARKS
FAYETTEVILLE   MOSUNNY   87  70  56 S6        30.05F HX  92
FORT SMITH     MOSUNNY   89  71  55 VRB3      30.01F HX  95
HARRISON       SUNNY     85  68  56 S7        30.07S HX  88
BENTONVILLE    SUNNY     88  70  55 SW3       30.07F HX  92
ROGERS         MOSUNNY   88  70  55 SE5       30.06F HX  93
SILOAM SPGS    SUNNY     88  70  55 SW8       30.05F HX  92
HIGHFILL       SUNNY     87  72  60 VRB5      30.04F HX  93
SPRINGDALE     MOSUNNY   88  70  55 W7        30.07  HX  92
$$

ARZ004-005-016-220000-
NORTH CENTRAL ARKANSAS

CITY           SKY/WX    TMP DP  RH WIND       PRES   REMARKS
BATESVILLE     SUNNY     86  66  51 E3        30.04F HX  88
FLIPPIN        SUNNY     84  64  51 SE6       30.06S HX  86
MTN HOME       SUNNY     83  66  56 S5        30.05F HX  85
$$

ARZ040-041-220000-
WEST CENTRAL ARKANSAS

CITY           SKY/WX    TMP DP  RH WIND       PRES   REMARKS
MENA           SUNNY     88  72  58 CALM      30.05S HX  94
MOUNT IDA      SUNNY     85  69  58 VRB3      30.04S HX  89
$$

ARZ009-017-025-026-028-220000-
NORTHEAST ARKANSAS

CITY           SKY/WX    TMP DP  RH WIND       PRES   REMARKS
CORNING        LGT RAIN  84  61  45 CALM      30.05S
JONESBORO      SUNNY     84  66  54 NE3       30.04S HX  86
NEWPORT        SUNNY     85  66  52 E6        30.05F HX  87
WALNUT RIDGE   SUNNY     84  63  48 E5        30.04S HX  85
BLYTHEVILLE    PTSUNNY   86  65  49 E5        30.05R HX  88
$$

ARZ022-023-033-042-044-220000-
CENTRAL ARKANSAS

CITY           SKY/WX    TMP DP  RH WIND       PRES   REMARKS
LITTLE ROCK    MOSUNNY   84  65  52 S6        30.03F HX  86
N LITTLE ROCK  MOSUNNY   85  69  58 SE5       30.03F HX  88
JACKSONVILLE   SUNNY     86  68  54 SE3       30.04F HX  89
SEARCY         SUNNY     86  66  50 CALM      30.05F HX  88
HOT SPRINGS    SUNNY     85  65  51 S6        30.05S HX  86
RUSSELLVILLE   SUNNY     85  68  56 VRB5      30.03F HX  88
CLINTON        FAIR      84  70  61 E3        30.05S HX  88
$$

ARZ036-220000-
EAST ARKANSAS

CITY           SKY/WX    TMP DP  RH WIND       PRES   REMARKS
WEST MEMPHIS   SUNNY     84  68  58 NE6       30.03S HX  87
$$

ARZ050-053-066-070-073-220000-
SOUTHWEST ARKANSAS

CITY           SKY/WX    TMP DP  RH WIND       PRES   REMARKS
ARKADELPHIA    FAIR      86  69  56 CALM      30.03F HX  90
CAMDEN         SUNNY     86  66  51 CALM      30.02F HX  88
TEXARKANA      MOSUNNY   85  68  56 E5        30.03F HX  88
EL DORADO      SUNNY     86  68  54 N3        30.03F HX  89
DE QUEEN       MOSUNNY   86  71  60 S3        30.01S HX  91
$$

ARZ056-057-069-220000-
SOUTHEAST ARKANSAS

CITY           SKY/WX    TMP DP  RH WIND       PRES   REMARKS
PINE BLUFF     SUNNY     85  66  53 N6        30.04S HX  87
STUTTGART      SUNNY     84  68  58 NW6       30.05S HX  87
MONTICELLO     SUNNY     86  67  52 N3        30.03S HX  89

$$




USA.gov is the U.S. government's official web portal to all federal, state and local government web resources and services.